Location: *
(35.2348°S, 91.3916°E)
Time: 16:46:37
(UTC+00:00)

Mayak - Pass Details

Date: 23 October 2019
Orbit: 583 x 601 km, 97.5° (Epoch: 12 November)

Event Time Altitude Azimuth Distance (km) Brightness Sun altitude
Exits shadow 16:05:30 13° 202° (SSW) 1,803 1.9 -38.4°
Drops below altitude 10° 16:05:54 10° 201° (SSW) 1,965 2.1 -38.4°
Sets 16:08:08 0° 196° (SSW) 2,874 3.2 -38.6°
